This is the latest recevied weather packets stored in our database for station/object G7UKK-10. If no packets are shown the sender has not sent any weather packets the latest 10 day(s).
| Time | Temp. | Humidity | Pressure | Rain* | Wind** | Luminosity | Snow |
|---|---|---|---|---|---|---|---|
| 1777928116 | 10.56° C | 85% | 1017.3 hPa | 0 mm | - | - | - |
| 1777927216 | 10.56° C | 83% | 1017.4 hPa | 0 mm | - | - | - |
| 1777926316 | 11.11° C | 83% | 1017.3 hPa | 0 mm | - | - | - |
| 1777925416 | 11.11° C | 83% | 1017 hPa | 0 mm | - | - | - |
| 1777924516 | 11.67° C | 83% | 1017.1 hPa | 0 mm | - | - | - |
| 1777923616 | 11.67° C | 84% | 1016.9 hPa | 0 mm | - | - | - |
| 1777922716 | 11.67° C | 83% | 1016.6 hPa | 0 mm | - | - | - |
| 1777921816 | 11.67° C | 83% | 1016.7 hPa | 0 mm | - | - | - |
| 1777920916 | 12.22° C | 83% | 1016.6 hPa | 0 mm | - | - | - |
| 1777920016 | 12.22° C | 83% | 1016.7 hPa | 0 mm | - | - | - |
| 1777919116 | 12.22° C | 82% | 1016.7 hPa | 0 mm | - | - | - |
| 1777918216 | 12.22° C | 82% | 1016.6 hPa | 0 mm | - | - | - |
| 1777917316 | 12.22° C | 79% | 1016.8 hPa | 0 mm | - | - | - |
| 1777916416 | 12.22° C | 79% | 1016.7 hPa | 0 mm | - | - | - |
| 1777915516 | 12.78° C | 79% | 1016.9 hPa | 0 mm | - | - | - |
| 1777914616 | 12.78° C | 78% | 1016.9 hPa | 0 mm | - | - | - |
| 1777913716 | 13.33° C | 79% | 1016.7 hPa | 0 mm | - | - | - |
| 1777912816 | 12.22° C | 81% | 1016.8 hPa | 0 mm | - | - | - |
| 1777911916 | 12.22° C | 81% | 1016.9 hPa | 0 mm | - | - | - |
| 1777911016 | 12.22° C | 81% | 1017.2 hPa | 0 mm | - | - | - |
| 1777910116 | 12.22° C | 80% | 1017.1 hPa | 0 mm | - | - | - |
| 1777909216 | 11.67° C | 81% | 1017.4 hPa | 0 mm | - | - | - |
| 1777908316 | 12.22° C | 80% | 1017.2 hPa | 0 mm | - | - | - |
| 1777907416 | 11.67° C | 81% | 1017.2 hPa | 0 mm | - | - | - |
| 1777906516 | 11.67° C | 81% | 1017.3 hPa | 0 mm | - | - | - |
* Rain latest hour (hover to see other rain measurements)
** Current wind speed in m/s (hover to see current wind gust speed)